YAOGAN-30 H (43082 NORAD) Tracking and Keplerian Element Data

This shows tracking and keplerian element data for the satellite.

Feedback or suggestion? Click here.




ElementValue
Catalog43082
NameYAOGAN-30 H
Epoch Orbit427
Epoch Day23.48588244
Epoch Year2018
RAAN194.7533
Inclination34.9944
Eccentricity0.0005239
Argument of Perigee204.336
Mean Anonmoly155.7109
Mean Motion14.89457704
Decay Rate1.17E-06
L11 43082U 17085B 18023.48588244 .00000117 00000-0 14778-4 0 9995
L22 43082 34.9944 194.7533 0005239 204.3360 155.7109 14.89457704 4271

Live tracking and technical data element details for YAOGAN-30 H (NORAD 43082). YAOGAN-30 H can be tracked NOW for your location showing map with azimuth and elevation plus other details from your city location.

Track the satellite on the map from your city or location and see movement details for azimuth, elevation, latitude, longitude, range, height, and movement on the map or in text.







IsCatalogInMostPopularTable: catalog: 43082, numindb: 122
Update: records affected: 1



GetName: 43082 YAOGAN-30 H

Hit Count: updated at: Tue, 25 Sep 2018 15:05:11 GMT